DW8782 Weather Reports


time (UTC)temp
F
wind
direction
speed
knots
gust
knots
rain 1hr
in
rain 24hr
in
rain mn
in
humidity
%
barometer
mb
20260504081524 58 100 0.0 0.9 0.00 0.00 0.00 68 1010.0
20260504080125 58 85 0.0 0.9 0.00 0.00 0.00 69 1009.9
20260504050104 63 73 0.0 0.9 0.00 0.00 0.00 68 1009.3
20260504044557 63 72 0.0 0.9 0.00 0.00 0.00 68 1009.3
20260504043053 64 72 0.0 0.9 0.00 0.00 0.00 67 1009.2
20260504041549 63 228 0.0 0.9 0.00 0.00 0.00 68 1009.1
20260504040051 63 228 0.0 0.9 0.00 0.00 0.00 68 1009.1
20260504034545 63 228 0.0 0.0 0.00 0.00 0.00 66 1009.0
20260504033043 64 228 0.0 0.0 0.00 0.00 0.00 64 1008.9
20260504031544 65 228 0.0 0.0 0.00 0.00 0.00 62 1008.8
20260504030041 66 228 0.0 0.9 0.00 0.00 0.00 57 1008.7
20260504024540 68 228 0.0 1.7 0.00 0.00 0.00 54 1008.7
20260504023035 71 232 0.0 2.6 0.00 0.00 0.00 47 1008.6
20260504021533 71 229 0.0 5.2 0.00 0.00 0.00 46 1008.6
20260504020032 72 80 0.0 2.6 0.00 0.00 0.00 44 1008.6
20260504014530 73 220 1.7 5.2 0.00 0.00 0.00 43 1008.7
20260504013035 74 263 2.6 5.2 0.00 0.00 0.00 42 1008.5
20260504011528 74 210 0.9 4.3 0.00 0.00 0.00 42 1008.7
20260504010024 75 154 0.9 6.1 0.00 0.00 0.00 39 1008.8
20260504004521 75 222 1.7 6.1 0.00 0.00 0.00 38 1008.7
20260504003020 75 234 2.6 8.7 0.00 0.00 0.00 38 1008.8
20260504001515 75 73 0.9 10.4 0.00 0.00 0.00 43 1009.1
20260504000033 75 231 1.7 8.7 0.00 0.00 0.00 42 1009.4
20260503234509 76 71 2.6 7.0 0.00 0.00 0.00 41 1009.5
20260503233008 75 210 2.6 7.8 0.00 0.00 0.00 41 1009.7
20260503231502 74 275 3.5 12.2 0.00 0.00 0.00 44 1009.9
20260503230104 74 218 1.7 7.8 0.00 0.00 0.00 44 1010.1
20260503224555 73 249 2.6 7.8 0.00 0.00 0.00 47 1010.3
20260503223053 72 278 1.7 9.6 0.00 0.00 0.00 48 1010.6
20260503221554 73 221 1.7 7.0 0.00 0.00 0.00 45 1010.7
20260503220044 73 239 1.7 7.0 0.00 0.00 0.00 48 1010.9
20260503214543 73 104 1.7 7.0 0.00 0.00 0.00 48 1011.1
20260503213039 73 129 2.6 7.0 0.00 0.00 0.00 44 1011.3
20260503211639 75 135 3.5 9.6 0.00 0.00 0.00 44 1011.4
20260503210031 76 300 0.9 7.8 0.00 0.00 0.00 43 1011.6
20260503204528 75 232 5.2 12.2 0.00 0.00 0.00 44 1011.8
20260503203039 72 210 2.6 7.0 0.00 0.00 0.00 47 1011.9
20260503201525 72 285 0.9 8.7 0.00 0.00 0.00 47 1012.1
20260503200020 72 201 2.6 8.7 0.00 0.00 0.00 45 1012.4
20260503194516 73 90 0.9 5.2 0.00 0.00 0.00 46 1012.5
20260503193017 75 134 0.9 5.2 0.00 0.00 0.00 43 1012.6
20260503191511 79 167 3.5 7.0 0.00 0.00 0.00 40 1012.6
20260503190011 82 225 0.0 2.6 0.00 0.00 0.00 32 1012.7
20260503184503 82 213 0.0 4.3 0.00 0.00 0.00 35 1012.9
20260503183059 81 222 0.0 2.6 0.00 0.00 0.00 38 1013.1
20260503181603 79 66 0.0 2.6 0.00 0.00 0.00 38 1013.3
20260503180048 78 151 0.0 2.6 0.00 0.00 0.00 44 1013.5
20260503174542 76 79 0.0 2.6 0.00 0.00 0.00 45 1013.6
20260503173051 74 80 0.9 4.3 0.00 0.00 0.00 45 1013.9
20260503171538 73 94 0.0 2.6 0.00 0.00 0.00 49 1014.0